Year,Month,Day,Hour,Minute,Value (Times are PST for temperature in C)
2012,03,24,00,00,-1.10
2012,03,24,00,01,-1.10
2012,03,24,00,02,-1.10
2012,03,24,00,03,-1.10
2012,03,24,00,04,-1.10
2012,03,24,00,05,-1.10
2012,03,24,00,06,-1.10
2012,03,24,00,07,-1.10
2012,03,24,00,08,-1.10
2012,03,24,00,09,-1.10
2012,03,24,00,10,-1.10
2012,03,24,00,11,-1.10
2012,03,24,00,12,-1.10
2012,03,24,00,13,-1.10
2012,03,24,00,14,-1.10
2012,03,24,00,15,-1.10
2012,03,24,00,16,-1.10
2012,03,24,00,17,-1.10
2012,03,24,00,18,-1.10
2012,03,24,00,19,-1.00
2012,03,24,00,20,-1.00
2012,03,24,00,21,-1.00
2012,03,24,00,22,-0.90
2012,03,24,00,23,-0.90
2012,03,24,00,24,-0.90
2012,03,24,00,25,-0.90
2012,03,24,00,26,-0.90
2012,03,24,00,27,-0.90
2012,03,24,00,28,-0.90
2012,03,24,00,29,-0.90
2012,03,24,00,30,-0.90
2012,03,24,00,31,-0.90
2012,03,24,00,32,-0.90
2012,03,24,00,33,-0.90
2012,03,24,00,34,-0.90
2012,03,24,00,35,-0.90
2012,03,24,00,36,-1.00
2012,03,24,00,37,-1.00
2012,03,24,00,38,-1.00
2012,03,24,00,39,-1.00
2012,03,24,00,40,-1.10
2012,03,24,00,41,-1.10
2012,03,24,00,42,-1.10
2012,03,24,00,43,-1.10
2012,03,24,00,44,-1.10
2012,03,24,00,45,-1.10
2012,03,24,00,46,-1.20
2012,03,24,00,47,-1.20
2012,03,24,00,48,-1.20
2012,03,24,00,49,-1.20
2012,03,24,00,50,-1.20
2012,03,24,00,51,-1.20
2012,03,24,00,52,-1.20
2012,03,24,00,53,-1.20
2012,03,24,00,54,-1.20
2012,03,24,00,55,-1.20
2012,03,24,00,56,-1.20
2012,03,24,00,57,-1.30
2012,03,24,00,58,-1.30
2012,03,24,00,59,-1.30
2012,03,24,01,00,-1.30
2012,03,24,01,01,-1.30
2012,03,24,01,02,-1.30
2012,03,24,01,03,-1.30
2012,03,24,01,04,-1.30
2012,03,24,01,05,-1.30
2012,03,24,01,06,-1.30
2012,03,24,01,07,-1.30
2012,03,24,01,08,-1.30
2012,03,24,01,09,-1.30
2012,03,24,01,10,-1.30
2012,03,24,01,11,-1.30
2012,03,24,01,12,-1.30
2012,03,24,01,13,-1.30
2012,03,24,01,14,-1.30
2012,03,24,01,15,-1.30
2012,03,24,01,16,-1.30
2012,03,24,01,17,-1.40
2012,03,24,01,18,-1.30
2012,03,24,01,19,-1.40
2012,03,24,01,20,-1.40
2012,03,24,01,21,-1.40
2012,03,24,01,22,-1.40
2012,03,24,01,23,-1.30
2012,03,24,01,24,-1.30
2012,03,24,01,25,-1.30
2012,03,24,01,26,-1.30
2012,03,24,01,27,-1.30
2012,03,24,01,28,-1.30
2012,03,24,01,29,-1.30
2012,03,24,01,30,-1.30
2012,03,24,01,31,-1.30
2012,03,24,01,32,-1.40
2012,03,24,01,33,-1.40
2012,03,24,01,34,-1.40
2012,03,24,01,35,-1.40
2012,03,24,01,36,-1.40
2012,03,24,01,37,-1.40
2012,03,24,01,38,-1.40
2012,03,24,01,39,-1.40
2012,03,24,01,40,-1.40
2012,03,24,01,41,-1.40
2012,03,24,01,42,-1.40
2012,03,24,01,43,-1.40
2012,03,24,01,44,-1.40
2012,03,24,01,45,-1.40
2012,03,24,01,46,-1.40
2012,03,24,01,47,-1.50
2012,03,24,01,48,-1.50
2012,03,24,01,49,-1.50
2012,03,24,01,50,-1.50
2012,03,24,01,51,-1.50
2012,03,24,01,52,-1.50
2012,03,24,01,53,-1.50
2012,03,24,01,54,-1.50
2012,03,24,01,55,-1.50
2012,03,24,01,56,-1.60
2012,03,24,01,57,-1.60
2012,03,24,01,58,-1.60
2012,03,24,01,59,-1.60
2012,03,24,02,00,-1.60
2012,03,24,02,01,-1.60
2012,03,24,02,02,-1.60
2012,03,24,02,03,-1.60
2012,03,24,02,04,-1.60
2012,03,24,02,05,-1.60
2012,03,24,02,06,-1.60
2012,03,24,02,07,-1.60
2012,03,24,02,08,-1.60
2012,03,24,02,09,-1.60
2012,03,24,02,10,-1.60
2012,03,24,02,11,-1.60
2012,03,24,02,12,-1.60
2012,03,24,02,13,-1.60
2012,03,24,02,14,-1.60
2012,03,24,02,15,-1.60
2012,03,24,02,16,-1.60
2012,03,24,02,17,-1.60
2012,03,24,02,18,-1.60
2012,03,24,02,19,-1.60
2012,03,24,02,20,-1.60
2012,03,24,02,21,-1.60
2012,03,24,02,22,-1.60
2012,03,24,02,23,-1.70
2012,03,24,02,24,-1.70
2012,03,24,02,25,-1.70
2012,03,24,02,26,-1.70
2012,03,24,02,27,-1.70
2012,03,24,02,28,-1.70
2012,03,24,02,29,-1.70
2012,03,24,02,30,-1.70
2012,03,24,02,31,-1.70
2012,03,24,02,32,-1.70
2012,03,24,02,33,-1.70
2012,03,24,02,34,-1.70
2012,03,24,02,35,-1.70
2012,03,24,02,36,-1.70
2012,03,24,02,37,-1.70
2012,03,24,02,38,-1.70
2012,03,24,02,39,-1.70
2012,03,24,02,40,-1.70
2012,03,24,02,41,-1.70
2012,03,24,02,42,-1.70
2012,03,24,02,43,-1.70
2012,03,24,02,44,-1.70
2012,03,24,02,45,-1.70
2012,03,24,02,46,-1.70
2012,03,24,02,47,-1.70
2012,03,24,02,48,-1.70
2012,03,24,02,49,-1.70
2012,03,24,02,50,-1.70
2012,03,24,02,51,-1.70
2012,03,24,02,52,-1.70
2012,03,24,02,53,-1.80
2012,03,24,02,54,-1.80
2012,03,24,02,55,-1.80
2012,03,24,02,56,-1.80
2012,03,24,02,57,-1.80
2012,03,24,02,58,-1.80
2012,03,24,02,59,-1.80
2012,03,24,03,00,-1.80
2012,03,24,03,01,-1.80
2012,03,24,03,02,-1.80
2012,03,24,03,03,-1.80
2012,03,24,03,04,-1.80
2012,03,24,03,05,-1.80
2012,03,24,03,06,-1.80
2012,03,24,03,07,-1.80
2012,03,24,03,08,-1.80
2012,03,24,03,09,-1.90
2012,03,24,03,10,-1.90
2012,03,24,03,11,-1.90
2012,03,24,03,12,-1.90
2012,03,24,03,13,-1.90
2012,03,24,03,14,-1.90
2012,03,24,03,15,-1.90
2012,03,24,03,16,-1.90
2012,03,24,03,17,-1.90
2012,03,24,03,18,-1.90
2012,03,24,03,19,-1.90
2012,03,24,03,20,-1.90
2012,03,24,03,21,-1.90
2012,03,24,03,22,-1.90
2012,03,24,03,23,-1.90
2012,03,24,03,24,-1.90
2012,03,24,03,25,-1.90
2012,03,24,03,26,-1.90
2012,03,24,03,27,-1.90
2012,03,24,03,28,-1.90
2012,03,24,03,29,-1.90
2012,03,24,03,30,-1.90
2012,03,24,03,31,-1.90
2012,03,24,03,32,-1.90
2012,03,24,03,33,-1.90
2012,03,24,03,34,-1.90
2012,03,24,03,35,-1.90
2012,03,24,03,36,-1.90
2012,03,24,03,37,-1.90
2012,03,24,03,38,-1.90
2012,03,24,03,39,-1.90
2012,03,24,03,40,-2.00
2012,03,24,03,41,-2.00
2012,03,24,03,42,-2.00
2012,03,24,03,43,-2.00
2012,03,24,03,44,-2.00
2012,03,24,03,45,-2.00
2012,03,24,03,46,-2.00
2012,03,24,03,47,-2.00
2012,03,24,03,48,-2.00
2012,03,24,03,49,-2.10
2012,03,24,03,50,-2.10
2012,03,24,03,51,-2.10
2012,03,24,03,52,-2.10
2012,03,24,03,53,-2.10
2012,03,24,03,54,-2.10
2012,03,24,03,55,-2.10
2012,03,24,03,56,-2.20
2012,03,24,03,57,-2.20
2012,03,24,03,58,-2.20
2012,03,24,03,59,-2.20
2012,03,24,04,00,-2.20
2012,03,24,04,01,-2.20
2012,03,24,04,02,-2.20
2012,03,24,04,03,-2.20
2012,03,24,04,04,-2.20
2012,03,24,04,05,-2.20
2012,03,24,04,06,-2.20
2012,03,24,04,07,-2.20
2012,03,24,04,08,-2.20
2012,03,24,04,09,-2.20
2012,03,24,04,10,-2.20
2012,03,24,04,11,-2.30
2012,03,24,04,12,-2.30
2012,03,24,04,13,-2.30
2012,03,24,04,14,-2.30
2012,03,24,04,15,-2.30
2012,03,24,04,16,-2.30
2012,03,24,04,17,-2.30
2012,03,24,04,18,-2.30
2012,03,24,04,19,-2.30
2012,03,24,04,20,-2.30
2012,03,24,04,21,-2.30
2012,03,24,04,22,-2.30
2012,03,24,04,23,-2.30
2012,03,24,04,24,-2.30
2012,03,24,04,25,-2.30
2012,03,24,04,26,-2.30
2012,03,24,04,27,-2.30
2012,03,24,04,28,-2.30
2012,03,24,04,29,-2.30
2012,03,24,04,30,-2.30
2012,03,24,04,31,-2.30
2012,03,24,04,32,-2.30
2012,03,24,04,33,-2.30
2012,03,24,04,34,-2.30
2012,03,24,04,35,-2.30
2012,03,24,04,36,-2.30
2012,03,24,04,37,-2.30
2012,03,24,04,38,-2.30
2012,03,24,04,39,-2.30
2012,03,24,04,40,-2.30
2012,03,24,04,41,-2.30
2012,03,24,04,42,-2.30
2012,03,24,04,43,-2.30
2012,03,24,04,44,-2.30
2012,03,24,04,45,-2.30
2012,03,24,04,46,-2.30
2012,03,24,04,47,-2.40
2012,03,24,04,48,-2.40
2012,03,24,04,49,-2.40
2012,03,24,04,50,-2.40
2012,03,24,04,51,-2.40
2012,03,24,04,52,-2.40
2012,03,24,04,53,-2.40
2012,03,24,04,54,-2.40
2012,03,24,04,55,-2.40
2012,03,24,04,56,-2.40
2012,03,24,04,57,-2.40
2012,03,24,04,58,-2.40
2012,03,24,04,59,-2.40
2012,03,24,05,00,-2.30
2012,03,24,05,01,-2.30
2012,03,24,05,02,-2.30
2012,03,24,05,03,-2.30
2012,03,24,05,04,-2.30
2012,03,24,05,05,-2.30
2012,03,24,05,06,-2.30
2012,03,24,05,07,-2.30
2012,03,24,05,08,-2.30
2012,03,24,05,09,-2.30
2012,03,24,05,10,-2.40
2012,03,24,05,11,-2.40
2012,03,24,05,12,-2.40
2012,03,24,05,13,-2.40
2012,03,24,05,14,-2.40
2012,03,24,05,15,-2.40
2012,03,24,05,16,-2.40
2012,03,24,05,17,-2.40
2012,03,24,05,18,-2.40
2012,03,24,05,19,-2.40
2012,03,24,05,20,-2.40
2012,03,24,05,21,-2.40
2012,03,24,05,22,-2.40
2012,03,24,05,23,-2.40
2012,03,24,05,24,-2.40
2012,03,24,05,25,-2.40
2012,03,24,05,26,-2.40
2012,03,24,05,27,-2.40
2012,03,24,05,28,-2.40
2012,03,24,05,29,-2.40
2012,03,24,05,30,-2.40
2012,03,24,05,31,-2.40
2012,03,24,05,32,-2.40
2012,03,24,05,33,-2.40
2012,03,24,05,34,-2.40
2012,03,24,05,35,-2.40
2012,03,24,05,36,-2.40
2012,03,24,05,37,-2.40
2012,03,24,05,38,-2.40
2012,03,24,05,39,-2.40
2012,03,24,05,40,-2.40
2012,03,24,05,41,-2.40
2012,03,24,05,42,-2.40
2012,03,24,05,43,-2.40
2012,03,24,05,44,-2.40
2012,03,24,05,45,-2.40
2012,03,24,05,46,-2.40
2012,03,24,05,47,-2.40
2012,03,24,05,48,-2.50
2012,03,24,05,49,-2.50
2012,03,24,05,50,-2.50
2012,03,24,05,51,-2.50
2012,03,24,05,52,-2.60
2012,03,24,05,53,-2.60
2012,03,24,05,54,-2.60
2012,03,24,05,55,-2.60
2012,03,24,05,56,-2.60
2012,03,24,05,57,-2.60
2012,03,24,05,58,-2.60
2012,03,24,05,59,-2.60
2012,03,24,06,00,-2.60
2012,03,24,06,01,-2.60
2012,03,24,06,02,-2.60
2012,03,24,06,03,-2.60
2012,03,24,06,04,-2.60
2012,03,24,06,05,-2.60
2012,03,24,06,06,-2.60
2012,03,24,06,07,-2.60
2012,03,24,06,08,-2.60
2012,03,24,06,09,-2.60
2012,03,24,06,10,-2.60
2012,03,24,06,11,-2.60
2012,03,24,06,12,-2.60
2012,03,24,06,13,-2.60
2012,03,24,06,14,-2.60
2012,03,24,06,15,-2.60
2012,03,24,06,16,-2.60
2012,03,24,06,17,-2.60
2012,03,24,06,18,-2.60
2012,03,24,06,19,-2.60
2012,03,24,06,20,-2.60
2012,03,24,06,21,-2.60
2012,03,24,06,22,-2.60
2012,03,24,06,23,-2.60
2012,03,24,06,24,-2.60
2012,03,24,06,25,-2.60
2012,03,24,06,26,-2.60
2012,03,24,06,27,-2.70
2012,03,24,06,28,-2.70
2012,03,24,06,29,-2.70
2012,03,24,06,30,-2.70
2012,03,24,06,31,-2.70
2012,03,24,06,32,-2.70
2012,03,24,06,33,-2.70
2012,03,24,06,34,-2.70
2012,03,24,06,35,-2.70
2012,03,24,06,36,-2.70
2012,03,24,06,37,-2.70
2012,03,24,06,38,-2.70
2012,03,24,06,39,-2.70
2012,03,24,06,40,-2.70
2012,03,24,06,41,-2.70
2012,03,24,06,42,-2.70
2012,03,24,06,43,-2.80
2012,03,24,06,44,-2.80
2012,03,24,06,45,-2.80
2012,03,24,06,46,-2.80
2012,03,24,06,47,-2.80
2012,03,24,06,48,-2.80
2012,03,24,06,49,-2.80
2012,03,24,06,50,-2.80
2012,03,24,06,51,-2.90
2012,03,24,06,52,-2.90
2012,03,24,06,53,-2.90
2012,03,24,06,54,-2.90
2012,03,24,06,55,-2.90
2012,03,24,06,56,-2.90
2012,03,24,06,57,-2.90
2012,03,24,06,58,-2.90
2012,03,24,06,59,-2.90
2012,03,24,07,00,-3.00
2012,03,24,07,01,-3.00
2012,03,24,07,02,-3.00
2012,03,24,07,03,-3.00
2012,03,24,07,04,-3.00
2012,03,24,07,05,-3.00
2012,03,24,07,06,-3.00
2012,03,24,07,07,-3.00
2012,03,24,07,08,-3.00
2012,03,24,07,09,-3.00
2012,03,24,07,10,-3.10
2012,03,24,07,11,-3.10
2012,03,24,07,12,-3.10
2012,03,24,07,13,-3.10
2012,03,24,07,14,-3.10
2012,03,24,07,15,-3.10
2012,03,24,07,16,-3.10
2012,03,24,07,17,-3.10
2012,03,24,07,18,-3.10
2012,03,24,07,19,-3.10
2012,03,24,07,20,-3.10
2012,03,24,07,21,-3.10
2012,03,24,07,22,-3.10
2012,03,24,07,23,-3.10
2012,03,24,07,24,-3.10
2012,03,24,07,25,-3.10
2012,03,24,07,26,-3.10
2012,03,24,07,27,-3.10
2012,03,24,07,28,-3.10
2012,03,24,07,29,-3.10
2012,03,24,07,30,-3.10
2012,03,24,07,31,-3.00
2012,03,24,07,32,-3.00
2012,03,24,07,33,-3.00
2012,03,24,07,34,-3.00
2012,03,24,07,35,-3.00
2012,03,24,07,36,-3.00
2012,03,24,07,37,-3.00
2012,03,24,07,38,-3.00
2012,03,24,07,39,-3.00
2012,03,24,07,40,-3.00
2012,03,24,07,41,-3.00
2012,03,24,07,42,-3.00
2012,03,24,07,43,-3.00
2012,03,24,07,44,-3.00
2012,03,24,07,45,-3.10
2012,03,24,07,46,-3.10
2012,03,24,07,47,-3.10
2012,03,24,07,48,-3.10
2012,03,24,07,49,-3.00
2012,03,24,07,50,-3.00
2012,03,24,07,51,-3.00
2012,03,24,07,52,-3.00
2012,03,24,07,53,-3.00
2012,03,24,07,54,-3.00
2012,03,24,07,55,-3.00
2012,03,24,07,56,-3.00
2012,03,24,07,57,-2.90
2012,03,24,07,58,-2.90
2012,03,24,07,59,-2.90
2012,03,24,08,00,-2.90
2012,03,24,08,01,-2.90
2012,03,24,08,02,-2.90
2012,03,24,08,03,-2.90
2012,03,24,08,04,-2.90
2012,03,24,08,05,-2.90
2012,03,24,08,06,-2.90
2012,03,24,08,07,-2.80
2012,03,24,08,08,-2.80
2012,03,24,08,09,-2.80
2012,03,24,08,10,-2.80
2012,03,24,08,11,-2.80
2012,03,24,08,12,-2.80
2012,03,24,08,13,-2.80
2012,03,24,08,14,-2.80
2012,03,24,08,15,-2.80
2012,03,24,08,16,-2.80
2012,03,24,08,17,-2.80
2012,03,24,08,18,-2.70
2012,03,24,08,19,-2.70
2012,03,24,08,20,-2.70
2012,03,24,08,21,-2.70
2012,03,24,08,22,-2.70
2012,03,24,08,23,-2.70
2012,03,24,08,24,-2.70
2012,03,24,08,25,-2.60
2012,03,24,08,26,-2.60
2012,03,24,08,27,-2.60
2012,03,24,08,28,-2.50
2012,03,24,08,29,-2.50
2012,03,24,08,30,-2.40
2012,03,24,08,31,-2.40
2012,03,24,08,32,-2.40
2012,03,24,08,33,-2.40
2012,03,24,08,34,-2.30
2012,03,24,08,35,-2.30
2012,03,24,08,36,-2.30
2012,03,24,08,37,-2.30
2012,03,24,08,38,-2.20
2012,03,24,08,39,-2.20
2012,03,24,08,40,-2.10
2012,03,24,08,41,-2.10
2012,03,24,08,42,-2.00
2012,03,24,08,43,-2.00
2012,03,24,08,44,-1.90
2012,03,24,08,45,-1.90
2012,03,24,08,46,-1.90
2012,03,24,08,47,-1.90
2012,03,24,08,48,-1.80
2012,03,24,08,49,-1.80
2012,03,24,08,50,-1.80
2012,03,24,08,51,-1.70
2012,03,24,08,52,-1.60
2012,03,24,08,53,-1.50
2012,03,24,08,54,-1.50
2012,03,24,08,55,-1.40
2012,03,24,08,56,-1.30
2012,03,24,08,57,-1.20
2012,03,24,08,58,-1.20
2012,03,24,08,59,-1.10
2012,03,24,09,00,-1.00
2012,03,24,09,01,-0.90
2012,03,24,09,02,-0.80
2012,03,24,09,03,-0.80
2012,03,24,09,04,-0.70
2012,03,24,09,05,-0.60
2012,03,24,09,06,-0.60
2012,03,24,09,07,-0.50
2012,03,24,09,08,-0.40
2012,03,24,09,09,-0.40
2012,03,24,09,10,-0.30
2012,03,24,09,11,-0.30
2012,03,24,09,12,-0.30
2012,03,24,09,13,-0.30
2012,03,24,09,14,-0.20
2012,03,24,09,15,-0.20
2012,03,24,09,16,-0.20
2012,03,24,09,17,-0.20
2012,03,24,09,18,-0.20
2012,03,24,09,19,-0.10
2012,03,24,09,20,-0.10
2012,03,24,09,21,-0.10
2012,03,24,09,22,0.00
2012,03,24,09,23,0.00
2012,03,24,09,24,0.00
2012,03,24,09,25,0.10
2012,03,24,09,26,0.10
2012,03,24,09,27,0.20
2012,03,24,09,28,0.20
2012,03,24,09,29,0.30
2012,03,24,09,30,0.30
2012,03,24,09,31,0.40
2012,03,24,09,32,0.40
2012,03,24,09,33,0.50
2012,03,24,09,34,0.60
2012,03,24,09,35,0.70
2012,03,24,09,36,0.70
2012,03,24,09,37,0.80
2012,03,24,09,38,0.90
2012,03,24,09,39,1.00
2012,03,24,09,40,1.10
2012,03,24,09,41,1.20
2012,03,24,09,42,1.30
2012,03,24,09,43,1.30
2012,03,24,09,44,1.30
2012,03,24,09,45,1.40
2012,03,24,09,46,1.50
2012,03,24,09,47,1.60
2012,03,24,09,48,1.60
2012,03,24,09,49,1.70
2012,03,24,09,50,1.80
2012,03,24,09,51,1.90
2012,03,24,09,52,1.90
2012,03,24,09,53,2.00
2012,03,24,09,54,2.10
2012,03,24,09,55,2.20
2012,03,24,09,56,2.30
2012,03,24,09,57,2.40
2012,03,24,09,58,2.50
2012,03,24,09,59,2.50
2012,03,24,10,00,2.60
2012,03,24,10,01,2.60
2012,03,24,10,02,2.70
2012,03,24,10,03,2.80
2012,03,24,10,04,2.80
2012,03,24,10,05,2.90
2012,03,24,10,06,3.00
2012,03,24,10,07,3.10
2012,03,24,10,08,3.20
2012,03,24,10,09,3.30
2012,03,24,10,10,3.40
2012,03,24,10,11,3.50
2012,03,24,10,12,3.60
2012,03,24,10,13,3.70
2012,03,24,10,14,3.80
2012,03,24,10,15,3.90
2012,03,24,10,16,4.00
2012,03,24,10,17,4.10
2012,03,24,10,18,4.20
2012,03,24,10,19,4.30
2012,03,24,10,20,4.40
2012,03,24,10,21,4.60
2012,03,24,10,22,4.70
2012,03,24,10,23,4.80
2012,03,24,10,24,4.80
2012,03,24,10,25,4.90
2012,03,24,10,26,5.00
2012,03,24,10,27,5.10
2012,03,24,10,28,5.20
2012,03,24,10,29,5.30
2012,03,24,10,30,5.40
2012,03,24,10,31,5.50
2012,03,24,10,32,5.60
2012,03,24,10,33,5.70
2012,03,24,10,34,5.70
2012,03,24,10,35,5.80
2012,03,24,10,36,5.90
2012,03,24,10,37,5.90
2012,03,24,10,38,6.00
2012,03,24,10,39,6.10
2012,03,24,10,40,6.10
2012,03,24,10,41,6.20
2012,03,24,10,42,6.20
2012,03,24,10,43,6.30
2012,03,24,10,44,6.40
2012,03,24,10,45,6.50
2012,03,24,10,46,6.50
2012,03,24,10,47,6.60
2012,03,24,10,48,6.70
2012,03,24,10,49,6.80
2012,03,24,10,50,6.80
2012,03,24,10,51,6.90
2012,03,24,10,52,7.00
2012,03,24,10,53,7.00
2012,03,24,10,54,7.10
2012,03,24,10,55,7.20
2012,03,24,10,56,7.20
2012,03,24,10,57,7.20
2012,03,24,10,58,7.30
2012,03,24,10,59,7.30
2012,03,24,11,00,7.30
2012,03,24,11,01,7.40
2012,03,24,11,02,7.50
2012,03,24,11,03,7.60
2012,03,24,11,04,7.70
2012,03,24,11,05,7.70
2012,03,24,11,06,7.80
2012,03,24,11,07,7.80
2012,03,24,11,08,7.90
2012,03,24,11,09,8.00
2012,03,24,11,10,8.10
2012,03,24,11,11,8.20
2012,03,24,11,12,8.20
2012,03,24,11,13,8.20
2012,03,24,11,14,8.30
2012,03,24,11,15,8.30
2012,03,24,11,16,8.40
2012,03,24,11,17,8.40
2012,03,24,11,18,8.40
2012,03,24,11,19,8.40
2012,03,24,11,20,8.40
2012,03,24,11,21,8.40
2012,03,24,11,22,8.40
2012,03,24,11,23,8.40
2012,03,24,11,24,8.40
2012,03,24,11,25,8.50
2012,03,24,11,26,8.50
2012,03,24,11,27,8.60
2012,03,24,11,28,8.60
2012,03,24,11,29,8.70
2012,03,24,11,30,8.70
2012,03,24,11,31,8.70
2012,03,24,11,32,8.70
2012,03,24,11,33,8.70
2012,03,24,11,34,8.70
2012,03,24,11,35,8.70
2012,03,24,11,36,8.70
2012,03,24,11,37,8.70
2012,03,24,11,38,8.70
2012,03,24,11,39,8.80
2012,03,24,11,40,8.80
2012,03,24,11,41,8.80
2012,03,24,11,42,8.80
2012,03,24,11,43,8.80
2012,03,24,11,44,8.80
2012,03,24,11,45,8.80
2012,03,24,11,46,8.90
2012,03,24,11,47,8.90
2012,03,24,11,48,8.90
2012,03,24,11,49,8.90
2012,03,24,11,50,8.90
2012,03,24,11,51,9.00
2012,03,24,11,52,8.90
2012,03,24,11,53,9.00
2012,03,24,11,54,9.10
2012,03,24,11,55,9.10
2012,03,24,11,56,9.10
2012,03,24,11,57,9.20
2012,03,24,11,58,9.20
2012,03,24,11,59,9.20
2012,03,24,12,00,9.10
2012,03,24,12,01,9.10
2012,03,24,12,02,9.10
2012,03,24,12,03,9.10
2012,03,24,12,04,9.00
2012,03,24,12,05,9.00
2012,03,24,12,06,9.00
2012,03,24,12,07,9.00
2012,03,24,12,08,9.00
2012,03,24,12,09,9.10
2012,03,24,12,10,9.10
2012,03,24,12,11,9.20
2012,03,24,12,12,9.20
2012,03,24,12,13,9.30
2012,03,24,12,14,9.30
2012,03,24,12,15,9.40
2012,03,24,12,16,9.50
2012,03,24,12,17,9.60
2012,03,24,12,18,9.70
2012,03,24,12,19,9.70
2012,03,24,12,20,9.60
2012,03,24,12,21,9.60
2012,03,24,12,22,9.60
2012,03,24,12,23,9.60
2012,03,24,12,24,9.60
2012,03,24,12,25,9.50
2012,03,24,12,26,9.40
2012,03,24,12,27,9.40
2012,03,24,12,28,9.50
2012,03,24,12,29,9.50
2012,03,24,12,30,9.60
2012,03,24,12,31,9.70
2012,03,24,12,32,9.80
2012,03,24,12,33,9.80
2012,03,24,12,34,9.80
2012,03,24,12,35,9.90
2012,03,24,12,36,9.90
2012,03,24,12,37,9.80
2012,03,24,12,38,9.80
2012,03,24,12,39,9.80
2012,03,24,12,40,9.70
2012,03,24,12,41,9.80
2012,03,24,12,42,9.90
2012,03,24,12,43,9.80
2012,03,24,12,44,9.80
2012,03,24,12,45,9.90
2012,03,24,12,46,9.90
2012,03,24,12,47,9.90
2012,03,24,12,48,9.90
2012,03,24,12,49,9.90
2012,03,24,12,50,9.90
2012,03,24,12,51,9.80
2012,03,24,12,52,9.80
2012,03,24,12,53,9.90
2012,03,24,12,54,9.90
2012,03,24,12,55,10.00
2012,03,24,12,56,10.10
2012,03,24,12,57,10.00
2012,03,24,12,58,9.90
2012,03,24,12,59,9.90
2012,03,24,13,00,9.90
2012,03,24,13,01,10.00
2012,03,24,13,02,10.00
2012,03,24,13,03,10.10
2012,03,24,13,04,10.10
2012,03,24,13,05,10.20
2012,03,24,13,06,10.20
2012,03,24,13,07,10.20
2012,03,24,13,08,10.20
2012,03,24,13,09,10.20
2012,03,24,13,10,10.20
2012,03,24,13,11,10.30
2012,03,24,13,12,10.40
2012,03,24,13,13,10.40
2012,03,24,13,14,10.40
2012,03,24,13,15,10.50
2012,03,24,13,16,10.60
2012,03,24,13,17,10.70
2012,03,24,13,18,10.80
2012,03,24,13,19,10.80
2012,03,24,13,20,10.80
2012,03,24,13,21,10.80
2012,03,24,13,22,10.70
2012,03,24,13,23,10.70
2012,03,24,13,24,10.70
2012,03,24,13,25,10.80
2012,03,24,13,26,10.80
2012,03,24,13,27,10.80
2012,03,24,13,28,10.70
2012,03,24,13,29,10.70
2012,03,24,13,30,10.70
2012,03,24,13,31,10.70
2012,03,24,13,32,10.80
2012,03,24,13,33,10.80
2012,03,24,13,34,10.80
2012,03,24,13,35,10.80
2012,03,24,13,36,10.80
2012,03,24,13,37,10.70
2012,03,24,13,38,10.70
2012,03,24,13,39,10.60
2012,03,24,13,40,10.70
2012,03,24,13,41,10.80
2012,03,24,13,42,10.80
2012,03,24,13,43,10.80
2012,03,24,13,44,10.80
2012,03,24,13,45,10.80
2012,03,24,13,46,10.90
2012,03,24,13,47,10.90
2012,03,24,13,48,10.90
2012,03,24,13,49,10.90
2012,03,24,13,50,10.90
2012,03,24,13,51,10.90
2012,03,24,13,52,10.90
2012,03,24,13,53,10.90
2012,03,24,13,54,11.00
2012,03,24,13,55,10.90
2012,03,24,13,56,10.90
2012,03,24,13,57,10.90
2012,03,24,13,58,10.90
2012,03,24,13,59,11.00
2012,03,24,14,00,11.10
2012,03,24,14,01,11.10
2012,03,24,14,02,11.20
2012,03,24,14,03,11.20
2012,03,24,14,04,11.30
2012,03,24,14,05,11.40
2012,03,24,14,06,11.50
2012,03,24,14,07,11.60
2012,03,24,14,08,11.60
2012,03,24,14,09,11.60
2012,03,24,14,10,11.70
2012,03,24,14,11,11.70
2012,03,24,14,12,11.60
2012,03,24,14,13,11.60
2012,03,24,14,14,11.70
2012,03,24,14,15,11.70
2012,03,24,14,16,11.70
2012,03,24,14,17,11.70
2012,03,24,14,18,11.70
2012,03,24,14,19,11.60
2012,03,24,14,20,11.60
2012,03,24,14,21,11.60
2012,03,24,14,22,11.60
2012,03,24,14,23,11.60
2012,03,24,14,24,11.60
2012,03,24,14,25,11.60
2012,03,24,14,26,11.60
2012,03,24,14,27,11.60
2012,03,24,14,28,11.70
2012,03,24,14,29,11.70
2012,03,24,14,30,11.80
2012,03,24,14,31,11.80
2012,03,24,14,32,11.90
2012,03,24,14,33,11.90
2012,03,24,14,34,11.90
2012,03,24,14,35,11.90
2012,03,24,14,36,11.90
2012,03,24,14,37,11.90
2012,03,24,14,38,11.90
2012,03,24,14,39,11.90
2012,03,24,14,40,11.90
2012,03,24,14,41,11.90
2012,03,24,14,42,11.90
2012,03,24,14,43,11.90
2012,03,24,14,44,12.00
2012,03,24,14,45,12.00
2012,03,24,14,46,12.00
2012,03,24,14,47,12.00
2012,03,24,14,48,11.90
2012,03,24,14,49,11.80
2012,03,24,14,50,11.80
2012,03,24,14,51,11.80
2012,03,24,14,52,11.80
2012,03,24,14,53,11.80
2012,03,24,14,54,11.70
2012,03,24,14,55,11.80
2012,03,24,14,56,11.80
2012,03,24,14,57,11.80
2012,03,24,14,58,11.90
2012,03,24,14,59,11.90
2012,03,24,15,00,11.90
2012,03,24,15,01,11.80
2012,03,24,15,02,11.70
2012,03,24,15,03,11.70
2012,03,24,15,04,11.80
2012,03,24,15,05,11.80
2012,03,24,15,06,11.80
2012,03,24,15,07,11.80
2012,03,24,15,08,11.90
2012,03,24,15,09,11.80
2012,03,24,15,10,11.80
2012,03,24,15,11,11.70
2012,03,24,15,12,11.70
2012,03,24,15,13,11.70
2012,03,24,15,14,11.70
2012,03,24,15,15,11.70
2012,03,24,15,16,11.70
2012,03,24,15,17,11.70
2012,03,24,15,18,11.70
2012,03,24,15,19,11.70
2012,03,24,15,20,11.80
2012,03,24,15,21,11.90
2012,03,24,15,22,11.90
2012,03,24,15,23,11.90
2012,03,24,15,24,12.00
2012,03,24,15,25,12.00
2012,03,24,15,26,12.00
2012,03,24,15,27,12.00
2012,03,24,15,28,12.00
2012,03,24,15,29,11.90
2012,03,24,15,30,11.90
2012,03,24,15,31,11.90
2012,03,24,15,32,11.90
2012,03,24,15,33,11.90
2012,03,24,15,34,11.90
2012,03,24,15,35,11.90
2012,03,24,15,36,12.00
2012,03,24,15,37,12.00
2012,03,24,15,38,11.90
2012,03,24,15,39,11.90
2012,03,24,15,40,11.80
2012,03,24,15,41,11.80
2012,03,24,15,42,11.80
2012,03,24,15,43,11.80
2012,03,24,15,44,11.80
2012,03,24,15,45,11.90
2012,03,24,15,46,11.90
2012,03,24,15,47,11.80
2012,03,24,15,48,11.90
2012,03,24,15,49,12.00
2012,03,24,15,50,12.10
2012,03,24,15,51,12.00
2012,03,24,15,52,12.00
2012,03,24,15,53,12.00
2012,03,24,15,54,11.90
2012,03,24,15,55,11.90
2012,03,24,15,56,11.90
2012,03,24,15,57,11.90
2012,03,24,15,58,11.90
2012,03,24,15,59,11.90
2012,03,24,16,00,11.90
2012,03,24,16,01,11.90
2012,03,24,16,02,12.00
2012,03,24,16,03,12.00
2012,03,24,16,04,12.00
2012,03,24,16,05,11.90
2012,03,24,16,06,11.90
2012,03,24,16,07,11.80
2012,03,24,16,08,11.80
2012,03,24,16,09,11.80
2012,03,24,16,10,11.80
2012,03,24,16,11,11.70
2012,03,24,16,12,11.70
2012,03,24,16,13,11.70
2012,03,24,16,14,11.80
2012,03,24,16,15,11.80
2012,03,24,16,16,11.80
2012,03,24,16,17,11.80
2012,03,24,16,18,11.80
2012,03,24,16,19,11.80
2012,03,24,16,20,11.70
2012,03,24,16,21,11.70
2012,03,24,16,22,11.80
2012,03,24,16,23,11.70
2012,03,24,16,24,11.70
2012,03,24,16,25,11.70
2012,03,24,16,26,11.70
2012,03,24,16,27,11.70
2012,03,24,16,28,11.70
2012,03,24,16,29,11.80
2012,03,24,16,30,11.80
2012,03,24,16,31,11.80
2012,03,24,16,32,11.80
2012,03,24,16,33,11.80
2012,03,24,16,34,11.80
2012,03,24,16,35,11.80
2012,03,24,16,36,11.80
2012,03,24,16,37,11.80
2012,03,24,16,38,11.80
2012,03,24,16,39,11.90
2012,03,24,16,40,11.90
2012,03,24,16,41,11.90
2012,03,24,16,42,11.90
2012,03,24,16,43,11.90
2012,03,24,16,44,12.00
2012,03,24,16,45,12.00
2012,03,24,16,46,12.10
2012,03,24,16,47,12.10
2012,03,24,16,48,12.10
2012,03,24,16,49,12.10
2012,03,24,16,50,12.10
2012,03,24,16,51,12.10
2012,03,24,16,52,12.10
2012,03,24,16,53,12.10
2012,03,24,16,54,12.10
2012,03,24,16,55,12.10
2012,03,24,16,56,12.00
2012,03,24,16,57,11.90
2012,03,24,16,58,11.90
2012,03,24,16,59,11.90
2012,03,24,17,00,11.90
2012,03,24,17,01,11.90
2012,03,24,17,02,11.90
2012,03,24,17,03,11.90
2012,03,24,17,04,11.90
2012,03,24,17,05,11.90
2012,03,24,17,06,11.90
2012,03,24,17,07,11.80
2012,03,24,17,08,11.80
2012,03,24,17,09,11.80
2012,03,24,17,10,11.80
2012,03,24,17,11,11.90
2012,03,24,17,12,11.90
2012,03,24,17,13,11.90
2012,03,24,17,14,11.90
2012,03,24,17,15,11.90
2012,03,24,17,16,11.90
2012,03,24,17,17,11.80
2012,03,24,17,18,11.80
2012,03,24,17,19,11.80
2012,03,24,17,20,11.80
2012,03,24,17,21,11.80
2012,03,24,17,22,11.80
2012,03,24,17,23,11.90
2012,03,24,17,24,11.80
2012,03,24,17,25,11.80
2012,03,24,17,26,11.80
2012,03,24,17,27,11.80
2012,03,24,17,28,11.80